Погода в Куре

Погода в Куре : погода сейчас, прогноз погоды и архив. Всё, что Вы хотите узнать о погоде в Куре!

Поиск расширенной информации на нашем сайте:

Другие новости

Новости СМИ2

Главная страница сайта

Новости сайта

03.07.2017

Напоминаем, что на нашем специализированном сайте Метеоцентр.Азия вы можете получить высокодетализированные автоматические прогнозы погоды по пунктам России, СНГ и мира в авиационном формате (включающие направление и скорость ветра, видимость, явления погоды, количество и форму облачности, нижнюю и верхнюю границу облачности).


Погода в Куре - сегодня

Время (UTC), дата Ветер
(°,м/с) 
Видим.   Явления Облачность Т
(°С)
Тd
(°С)
f(%) Тe
(°С)
Pmin
(гПа)
dP
(гПа)
Po
(мм)
O2
(г/м3)
Тmin Tmax R s Состояние
почвы
12 23.07.17 тихо ()   20000 м  гроза, ливневой дождь  10/10 600 м кучево-дожд. 
[Cb cap]
+16.9 +16.9 100 +30  999  -0.9  725  271           
15 23.07.17 тихо ()   20000 м  слаб. ливневой дождь, в посл. час гроза  10/10 600 м кучево-дожд. 
[Cb cap]
+16.1 +16.1 100 +28  998.5  -0.6  725  272           
18 23.07.17 тихо ()   20000 м  {гроза, ливн. осадки}  9/9 600 м 
[Sc]
+14.7 +14.7 100 +24  997.3  -1.3  724  273           
21 23.07.17 тихо ()   10 км  туман  ?/?  
+14.3 +14.3 100 +23  997  -0.4  723  274  +13.8    27    влажная 
00 24.07.17 290 (З) 20000 м  {туман}  8/6 600 м кучево-дожд., средняя, верхняя 
[Cb cap|Ac As|Ci]
+18.5 +15 80 +30  996.1  -0.4  723  270           
03 24.07.17 230 (ЮЗ) 20000 м    6/4 600 м кучево-дожд., средняя, верхняя 
[Cb cap|Ac As|Ci]
+22.3 +13.9 59 +30  994.6  -1  722  266           
06 24.07.17 030 (СВ) 20000 м  в посл. час гроза{ливн. осадки}  8/6 600 м кучево-дожд., средняя, верхняя 
[Cb cap|As trans|Ci]
+19.3 +14 71 +28  995.2  0.3  722  269           
09 24.07.17 050 (СВ) 20000 м    8/6 600 м кучево-дожд., верхняя 
[Cb cap|Ci]
+20.4 +14.5 69 +29  994.9  -0.2  722  268    +24.6     
12 24.07.17 тихо ()   20000 м  {гроза}  10/10 600 м кучево-дожд. 
[Cb cap]
+16.6 +15.9 96 +28  996.6  1.2  723  271           
15 24.07.17 050 (СВ) 4000 м  сильн. гроза с градом{ливн. осадки}  10/10 300 м 
[Ns]
+13.9 +13.9 100 +22  997.2  0.3  723  274           
18 24.07.17 тихо ()   20000 м  в посл. час гроза{дождь}  10/10 600 м 
[Sc]
+12.6 +12.6 100 +18  997.5  0.1  723  276           
21 24.07.17 050 (СВ) 10 км    10/10 200 м 
[St]
+12.9 +12.9 100 +20  998.2  0.7  724  276  +12.6    19    влажная 
00 25.07.17 020 (С) 20000 м    9/0 
[St]
+16.2 +13.8 86 +26  998.3  0.5  724  273           
03 25.07.17 230 (ЮЗ) 20000 м    10/10 300 м кучево-дожд. 
[Cb cap]
+18.6 +14 75 +28  997.9  0.1  724  270           
06 25.07.17 230 (ЮЗ) 10 км  в посл. час ливневой дождь  10/10 600 м кучево-дожд. 
[Cb cap]
+17.7 +15.5 87 +30  998.5  0.5  725  271           
09 25.07.17 030 (СВ) 10 км  слаб. ливневой дождь  10/10 300 м кучево-дожд. 
[Cb cap]
+16 +16 100 +28  1000  1.2  726  273    +19.2     
12 25.07.17 тихо ()   20000 м  {ливн. осадки}  9/9 600 м 
[Sc]
+14.8 +14.8 100 +24  1002.5  2.2  727  275           
15 25.07.17 040 (СВ) 20000 м    5/5 600 м 
[]
+13.8 +13.8 100 +22  1003.5  0.8  728  276           
18 25.07.17 040 (СВ) 20000 м    10/0 средняя 
[As trans]
+13 +12.9 99 +20  1004.4  0.8  728  278           
21 25.07.17 050 (СВ) 20000 м    10/0 средняя 
[As trans]
+12.6 +12.4 99 +19  1006.2  1.7  730  279  +12.3        влажная 
00 26.07.17 200 (Ю) 20000 м    8/6 600 м кучево-дожд., средняя, верхняя 
[Cb cap|Ac As|Cc]
+17.5 +12.4 72 +24  1006.3  0.6  730  274           
03 26.07.17 190 (Ю) 20000 м    8/8 600 м средняя, верхняя 
[Sc|Ac As|Ci]
+19.9 +13 64 +27  1005.8  -0.2  730  272           
06 26.07.17 200 (Ю) 20000 м  слаб. морось  8/8 600 м кучево-дожд. 
[Cb cap]
+20.7 +13.8 65 +28  1005.4  -0.3  730  271           
09 26.07.17 210 (ЮЗ) 20000 м    4/4 600 м 
+21.4 +13.6 61 +28  1005.7  0.4  730  270    +22.1       
12 26.07.17 тихо ()   20000 м    4/0 верхняя 
[Ci sp]
+15.2 +15.2 100 +25  1007.9  1.5  731  276           
Время (UTC), дата Ветер
(°,м/с) 
Видим.   Явления Облачность Т
(°С)
Тd
(°С)
f(%) Тe
(°С)
Pmin
(гПа)
dP
(гПа)
Po
(мм)
O2
(г/м3)
Тmin Tmax R s Состояние
почвы

Для получения пояснительной информации подведите курсор к названию столбца.

ПОГОДА в Куре - архив

Всё, что Вы хотите узнать о погоде в Куре - удобно и подробно!

Выберите нужную дату (начиная с 1 января 2015* года) и нажмите кнопку "Найти".
Будут отображены архивные сводки погоды по пункту Кур, начиная с указанной даты.


Отображать данные в формате CSV (для использования в таблицах Excel)


Внимание! Наш архив погоды предназначен исключительно для личного некоммерческого использования в познавательных целях. Если Вам необходимы официальные справки о состоянии погоды (для производственных, юридических, коммерческих и т.п. целей), обращайтесь в органы Росгидромета.

*Примечание: данная дата относится к архиву по метеостанциям СССР (Россия, СНГ, Балтия).
Архив по метеостанциям Зарубежной Европы и Азии (кроме Китая) хранится 10 дней, по другим регионам земного шара (Китай, Африка, Америка, Австралия, Океания) - 1 день.

Кур - район местоположения метеостанции


Название, широта, долгота, высота метеостанции:
Кур 49.9°ш. 134.6°д. 283 м над ур. моря [Российская Федерация]

Дополнительная информация

В oтличие oт бoльшинства пoгoдных сайтoв мы публикуем пoдрoбную метеoинфoрмацию в детальнoм прoфессиoнальнoм фoрмате.

Характеристики температуры и влажнoсти вoздуха измеряются на высoте 2 м в тени вдали oт зданий и деревьев.
Скoрoсть ветра измеряется на высoте 10 м (на урoвне рoста челoвека скoрoсть ветра ниже в 1.5-2 раза). Если метеoстанция нахoдится в гoрoде или в лесу, тo скoрoсть ветра занижена на 2-4 м/с пo сравнению с oткрытым местoм. Скoрoсть ветра над акватoриями крупных рек и oзёр, а также на вершинах хoлмoв на 2-5 м/с выше, чем в oбычных услoвиях.
Атмoсфернoе давление в разных тoчках местнoсти мoжет значительнo oтличаться oт давления на метеoстанции, в зависимoсти oт услoвий рельефа (при пoдъёме на 10 м давление пoнижается примернo на 1 мм рт.ст.).